User: anonymous   Login
Location: Brno
(49.2000°N, 16.6330°E)
Time: 10:58:31
(UTC+02:00)
Language:

NOSS 3-4 (A) - Orbit

View from above orbital plane
View from above orbital plane
View from above satellite
View from above satellite

Ground track
Ground track

The orbit data is extracted from the following two-line orbital elements,

1 31701U 07027A   17142.06275321 0.00000000  00000-0  00000-0 0    02
2 31701  63.4029 149.9782 0187000  23.8330 336.1670 13.40726408    04
Epoch (UTC): 22 May 2017 01:30:21
Eccentricity: 0.0187000
inclination: 63.4029°
perigee height: 966 km
apogee height: 1246 km
right ascension of ascending node: 149.9782°
argument of perigee: 23.8330°
revolutions per day: 13.40726408
mean anomaly at epoch: 336.1670°
orbit number at epoch: 0

The dashed part of the orbit path shows where the satellite is in the earth's shadow,  

DLR